Torna al catalogo

SL-14 R/B

AttivoPO
NORAD 11087·ROCKET BODY·🇷🇺 Russia

Lanciato Oct 26, 1978 da Plesetsk Cosmodrome

Loading…

Prossimi Passaggi (prossime 24 ore)

TLE

AggiornatoSource: Space-Track

Epoca: Sep 14, 2026, 04:41 UTC

1 11087U 78100D   26257.19569752  .00000041  00000-0  42067-3 0  9996
2 11087  82.5553 346.1043 0010278 125.8478 259.2585 11.97035345 92411

Traccia SL-14 R/B in tempo reale con AllMySat

Download on the App Store